Location: Saint-Palais-sur-Mer
(45.6429°N, 1.0859°W)
Time: 23:14:39
(UTC+01:00)

Vanguard 1 - Pass Details

Date: 10 February 2026
Orbit: 653 x 3818 km, 34.2° (Epoch: 12 March)

Event Time Altitude Azimuth Distance (km) Brightness Sun altitude
Rises 01:11:12 0° 282° (WNW) 7,842 14.8 -58.7°
Reaches altitude 10° 01:17:45 10° 273° (W) 6,917 14.3 -58.8°
Enters shadow 01:24:31 20° 259° (W) 6,061 13.9 -58.7°
